User: anonymous   Login
Location: Unspecified
(0.0000°N, 0.0000°E)
Time: 19:31:38
(UTC+00:00)
Language:

COSMOS 2506 - Orbit

View from above orbital plane
View from above orbital plane
View from above satellite
View from above satellite

Ground track
Ground track

The orbit is defined by the following mean orbital elements,

1 40699U          26145.60409627 +.00000000 +00000-0 +74362-4 0 00009
2 40699  98.0481 187.2830 0006230 217.4851 142.5913 14.54377573    09
Epoch (UTC): 25 May 2026 14:29:53
Eccentricity: 0.0006230
inclination: 98.0481°
perigee height: 707 km
apogee height: 716 km
right ascension of ascending node: 187.2830°
argument of perigee: 217.4851°
revolutions per day: 14.54377573
mean anomaly at epoch: 142.5913°

The dashed part of the orbit path shows where the satellite is in the earth's shadow,  

DLR